Date String (YYYY-MM-DD hh:mm:ss) UTC,Instrument flags,Ambient pressure (hPa),Sample flow (lpm),Bypass flow (lpm),Sample temperature (°C),Ambient temperature (°C),ASC tube jacket temperature (°C),LED temperature (°C),Box temperature (°C),Sample RH (%),Span deviation,Mass concentration (μg/m³),Mass concentration (μg/m³),Mass concentration (μg/m³)
DateTimeUTC,F1_M11,P_M11,Q1_M11,Q2_M11,T1_M11,T2_M11,T3_M11,T4_M11,T5_M11,U1_M11,ZSPAN_M11,X0_M11,X2_M11,X1_M11
2022-12-05 12:00:00,,0815.3,5.00,0.00,22.8,21.3,00.0,31.8,24.5,14.6,0000.0,0002.04,0001.55,0001.34
2022-12-05 12:01:00,,0815.3,5.00,0.00,22.8,21.3,00.0,31.8,24.6,14.3,0000.0,0002.10,0001.57,0001.35
2022-12-05 12:02:00,,0815.3,5.00,0.00,22.8,21.3,00.0,31.8,24.6,14.3,0000.0,0002.02,0001.54,0001.34
2022-12-05 12:03:00,,0815.3,5.00,0.00,22.8,21.3,00.0,31.8,24.5,14.2,0000.0,0002.04,0001.53,0001.35
2022-12-05 12:04:00,,0815.4,5.00,0.00,22.8,21.3,00.0,31.8,24.6,14.3,0000.0,0002.05,0001.52,0001.34
2022-12-05 12:05:00,,0815.4,5.00,0.00,22.8,21.3,00.0,31.8,24.5,14.3,0000.0,0002.03,0001.51,0001.34
2022-12-05 12:06:00,,0815.7,4.99,0.00,22.8,21.3,00.0,31.8,24.5,14.4,0000.0,0001.97,0001.49,0001.33
2022-12-05 12:07:00,,0815.4,4.99,0.00,22.8,21.3,00.0,31.8,24.5,14.3,0000.0,0001.92,0001.46,0001.32
2022-12-05 12:08:00,,0815.4,5.00,0.00,22.8,21.3,00.0,31.8,24.4,14.3,0000.0,0001.89,0001.44,0001.32
2022-12-05 12:09:00,,0815.3,5.00,0.00,22.8,21.3,00.0,31.8,24.4,14.6,0000.0,0001.86,0001.43,0001.31
2022-12-05 12:10:00,,0815.3,5.01,0.00,22.8,21.3,00.0,31.8,24.5,14.5,0000.0,0001.88,0001.43,0001.31
2022-12-05 12:11:00,,0815.4,5.01,0.00,22.8,21.3,00.0,31.7,24.5,14.6,0000.0,0001.96,0001.45,0001.30
2022-12-05 12:12:00,,0815.2,4.99,0.00,22.8,21.2,00.0,31.7,24.5,14.6,0000.0,0001.99,0001.47,0001.30
2022-12-05 12:13:00,,0815.4,5.00,0.00,22.8,21.2,00.0,31.7,24.5,14.6,0000.0,0002.04,0001.50,0001.30
2022-12-05 12:14:00,,0815.3,5.02,0.00,22.8,21.3,00.0,31.7,24.5,14.6,0000.0,0002.00,0001.50,0001.29
2022-12-05 12:15:00,,0815.2,4.99,0.00,22.8,21.3,00.0,31.7,24.5,14.7,0000.0,0001.98,0001.51,0001.30
2022-12-05 12:16:00,,0815.3,4.99,0.00,22.8,21.2,00.0,31.7,24.5,14.6,0000.0,0002.00,0001.51,0001.29
2022-12-05 12:17:00,,0815.4,5.01,0.00,22.7,21.2,00.0,31.7,24.5,14.7,0000.0,0001.98,0001.49,0001.28
2022-12-05 12:18:00,,0815.3,5.00,0.00,22.7,21.2,00.0,31.7,24.4,14.8,0000.0,0001.93,0001.47,0001.26
2022-12-05 12:19:00,,0815.2,4.99,0.00,22.7,21.2,00.0,31.7,24.5,14.8,0000.0,0001.93,0001.46,0001.25
2022-12-05 12:20:00,,0815.3,5.01,0.00,22.7,21.2,00.0,31.7,24.5,14.9,0000.0,0001.95,0001.47,0001.24
2022-12-05 12:21:00,,0815.3,5.00,0.00,22.7,21.2,00.0,31.7,24.5,15.0,0000.0,0001.91,0001.45,0001.23
2022-12-05 12:22:00,,0815.4,5.00,0.00,22.7,21.2,00.0,31.7,24.4,14.9,0000.0,0001.79,0001.41,0001.21
2022-12-05 12:23:00,,0815.4,5.01,0.00,22.7,21.1,00.0,31.7,24.3,15.0,0000.0,0001.69,0001.36,0001.19
2022-12-05 12:24:00,,0815.6,5.00,0.00,22.7,21.1,00.0,31.7,24.3,14.9,0000.0,0001.63,0001.33,0001.18
2022-12-05 12:25:00,,0815.3,4.99,0.00,22.7,21.1,00.0,31.7,24.3,14.9,0000.0,0001.79,0001.33,0001.17
2022-12-05 12:26:00,,0815.3,5.02,0.00,22.7,21.1,00.0,31.7,24.4,14.9,0000.0,0002.23,0001.32,0001.15
2022-12-05 12:27:00,,0815.4,4.97,0.00,22.7,21.1,00.0,31.6,24.3,14.9,0000.0,0002.30,0001.33,0001.14
2022-12-05 12:28:00,,0815.3,5.02,0.00,22.6,21.1,00.0,31.6,24.2,15.0,0000.0,0002.39,0001.35,0001.14
2022-12-05 12:29:00,,0815.3,4.99,0.00,22.6,21.1,00.0,31.6,24.3,15.0,0000.0,0002.60,0001.38,0001.14
2022-12-05 12:30:00,,0815.3,5.00,0.00,22.6,21.1,00.0,31.6,24.2,15.1,0000.0,0003.24,0001.36,0001.13
2022-12-05 12:31:00,,0815.4,5.01,0.00,22.6,21.1,00.0,31.6,24.2,15.1,0000.0,0003.75,0001.35,0001.13
2022-12-05 12:32:00,,0815.3,4.99,0.00,22.6,21.1,00.0,31.6,24.2,15.0,0000.0,0003.84,0001.36,0001.13
2022-12-05 12:33:00,,0815.3,4.99,0.00,22.6,21.1,00.0,31.6,24.3,15.1,0000.0,0003.90,0001.35,0001.12
2022-12-05 12:34:00,,0815.2,5.01,0.00,22.6,21.1,00.0,31.6,24.3,15.0,0000.0,0003.89,0001.34,0001.13
2022-12-05 12:35:00,,0815.1,4.99,0.00,22.6,21.1,00.0,31.6,24.2,15.0,0000.0,0003.84,0001.32,0001.12
2022-12-05 12:36:00,,0815.2,5.00,0.00,22.6,21.1,00.0,31.6,24.4,15.0,0000.0,0003.70,0001.28,0001.11
2022-12-05 12:37:00,,0815.2,5.00,0.00,22.6,21.1,00.0,31.6,24.3,14.9,0000.0,0003.12,0001.26,0001.11
2022-12-05 12:38:00,,0815.3,5.00,0.00,22.6,21.1,00.0,31.6,24.3,14.8,0000.0,0003.01,0001.23,0001.11
2022-12-05 12:39:00,,0815.2,5.00,0.00,22.6,21.0,00.0,31.6,24.2,15.0,0000.0,0003.06,0001.25,0001.10
2022-12-05 12:40:00,,0815.2,5.02,0.00,22.6,21.0,00.0,31.6,24.3,14.8,0000.0,0003.05,0001.25,0001.10
2022-12-05 12:41:00,,0815.1,4.97,0.00,22.6,21.0,00.0,31.6,24.3,14.8,0000.0,0002.58,0001.25,0001.09
2022-12-05 12:42:00,,0815.2,5.01,0.00,22.6,21.1,00.0,31.5,24.3,14.9,0000.0,0002.35,0001.28,0001.07
2022-12-05 12:43:00,,0815.2,5.01,0.00,22.6,21.0,00.0,31.5,24.3,15.0,0000.0,0002.86,0001.27,0001.06
2022-12-05 12:44:00,,0815.2,4.99,0.00,22.6,21.0,00.0,31.5,24.2,15.0,0000.0,0002.80,0001.26,0001.06
2022-12-05 12:45:00,,0815.3,5.00,0.00,22.5,21.0,00.0,31.5,24.1,15.1,0000.0,0002.93,0001.28,0001.06
2022-12-05 12:46:00,,0815.2,5.01,0.00,22.5,21.0,00.0,31.5,24.2,15.1,0000.0,0002.96,0001.30,0001.05
2022-12-05 12:47:00,,0815.2,4.99,0.00,22.5,21.0,00.0,31.5,24.2,15.1,0000.0,0003.03,0001.32,0001.05
2022-12-05 12:48:00,,0815.1,5.00,0.00,22.5,21.0,00.0,31.5,24.2,15.0,0000.0,0003.09,0001.35,0001.05
2022-12-05 12:49:00,,0815.3,4.99,0.00,22.5,21.0,00.0,31.5,24.3,14.9,0000.0,0003.15,0001.38,0001.06
2022-12-05 12:50:00,,0815.2,5.00,0.00,22.5,21.0,00.0,31.5,24.2,15.1,0000.0,0003.07,0001.37,0001.06
2022-12-05 12:51:00,,0815.1,5.01,0.00,22.5,21.0,00.0,31.5,24.2,15.0,0000.0,0002.96,0001.36,0001.06
2022-12-05 12:52:00,,0815.2,4.99,0.00,22.5,21.0,00.0,31.5,24.3,15.0,0000.0,0002.97,0001.36,0001.06
2022-12-05 12:53:00,,0815.3,5.00,0.00,22.5,20.9,00.0,31.5,24.1,15.2,0000.0,0002.76,0001.35,0001.07
2022-12-05 12:54:00,,0815.2,5.00,0.00,22.5,20.9,00.0,31.5,24.1,15.0,0000.0,0002.10,0001.36,0001.07
2022-12-05 12:55:00,,0815.2,5.00,0.00,22.5,21.0,00.0,31.5,24.2,14.9,0000.0,0002.14,0001.37,0001.07
2022-12-05 12:56:00,,0815.2,5.01,0.00,22.4,20.9,00.0,31.5,24.1,15.0,0000.0,0002.04,0001.36,0001.08
2022-12-05 12:57:00,,0815.1,5.00,0.00,22.4,20.9,00.0,31.5,24.1,14.9,0000.0,0002.06,0001.36,0001.08
2022-12-05 12:58:00,,0815.1,4.99,0.00,22.4,20.9,00.0,31.4,24.2,14.8,0000.0,0002.03,0001.35,0001.09
2022-12-05 12:59:00,,0815.1,4.99,0.00,22.4,20.9,00.0,31.4,24.2,14.9,0000.0,0002.04,0001.35,0001.10
